Regional Weather Roundup
Issued by NWS

Home | Current Version | Previous Version | Graphics & Text | Print | Product List | Glossary On
Versions: 1 2 3 4 5 6 7 8 9 10 11 12 13 14 15 16 17 18 19 20 21 22 23 24 25 26 27 28 29 30 31 32 33 34 35 36 37 38 39 40 41 42 43 44 45 46 47 48 49 50
000
ASUS43 KBIS 211702
RWRND

NORTH DAKOTA REGIONAL WEATHER ROUNDUP
NATIONAL WEATHER SERVICE BISMARCK ND
1200 PM CDT SAT OCT 21 2017

NOTE: "FAIR" INDICATES FEW OR NO CLOUDS BELOW 12,000 FEET WITH NO
SIGNIFICANT WEATHER AND/OR OBSTRUCTIONS TO VISIBILITY.


NDZ001>003-009>011-017-211800-
NORTHWEST NORTH DAKOTA

CITY           SKY/WX    TMP DP  RH WIND       PRES   REMARKS
WILLISTON      CLOUDY    47  36  65 W22G39    29.59R
MINOT          CLOUDY    53  39  59 SW23G29   29.49S
MINOT AFB      CLOUDY    52  40  62 W20G29    29.47S
$$

NDZ018>021-031>035-040>046-211800-
SOUTHWEST NORTH DAKOTA

CITY           SKY/WX    TMP DP  RH WIND       PRES   REMARKS
BISMARCK       CLOUDY    51  41  68 W17G29    29.61R
DICKINSON      CLOUDY    46  36  68 W33G41    29.63R
GARRISON         N/A     49  39  68 W22G32    29.55R
HETTINGER ARPT CLOUDY    47  31  53 W30G38    29.70R
$$

NDZ004>008-012>016-024-026-027-054-211800-
NORTHEAST NORTH DAKOTA

CITY           SKY/WX    TMP DP  RH WIND       PRES   REMARKS
GRAND FORKS    PTSUNNY   63  43  48 W10G23    29.47R
GRND FRKS AFB  MOSUNNY   62  42  47 W15       29.47R
DEVILS LAKE    PTSUNNY   56  41  57 W22       29.48R
$$

NDZ022-023-025-028>030-036>039-047>053-211800-
SOUTHEAST NORTH DAKOTA

CITY           SKY/WX    TMP DP  RH WIND       PRES   REMARKS
FARGO          CLOUDY    60  41  49 W14       29.50S
JAMESTOWN      SUNNY     57  41  55 W20G28    29.51S
$$




USA.gov is the U.S. government's official web portal to all federal, state and local government web resources and services.